Flag for U.S.A. Weather past 2 weeks in Fort Wayne, Indiana, U.S.A.

Now
46 °F

Passing clouds.


Feels Like: 40 °F
Forecast: 40 / 53 °F
Wind: 14 mph from Southwest

Location: Fort Wayne International Airport

Current Time: Mar 31, 2015 at 7:45:14 AM

Latest Report: Mar 31, 2015 at 6:54 AM


Visibility: 10 mi

Pressure: 29.70 "Hg

Humidity: 66%

Dew point: 35 °F

Location of Fort WayneLocation

Historic Weather in Fort Wayne — Graph

°F

Fort Wayne temperature yesterday

Maximum temperature yesterday: 58 °F (at 3:54 PM)
Minimum temperature yesterday: 34 °F (at 7:54 AM)
Average temperature yesterday: 47 °F

Past Weeks' High & Low Weather Summary

 TemperatureHumidityPressure
High67 °F (Mar 16, 5:54 PM)97% (Mar 25, 5:54 AM)30.38 "Hg (Mar 25, 5:54 AM)
Low15 °F (Mar 24, 6:54 AM)29% (Mar 18, 3:54 PM)29.70 "Hg (Mar 31, 5:54 AM)
Average37 °F66%30.14 "Hg
* Reported Mar 16 6:54 AM — Mar 31 6:54 AM, Fort Wayne, Weather by CustomWeather, © 2015

Note: Actual official high and low records may vary slightly from our data, if they occured in-between our weather recording intervals... More about our weather records

Advertising

Fort Wayne weather history for previous 24 hours

 ConditionsComfort  
Time TempWeatherWind HumidityBarometerVisibility
6:54 AM
Tue, Mar 31
46 °FPassing clouds.14 mph66%29.70 "Hg10 mi
5:54 AM47 °FPassing clouds.21 mph64%29.70 "Hg10 mi
4:54 AM47 °FPassing clouds.22 mph61%29.70 "Hg10 mi
3:54 AM47 °FPassing clouds.20 mph61%29.75 "Hg10 mi
2:54 AM46 °FMostly cloudy.14 mph68%29.81 "Hg10 mi
1:54 AM43 °FPassing clouds.8 mph76%29.85 "Hg10 mi
12:54 AM42 °FPassing clouds.9 mph82%29.90 "Hg10 mi
11:54 PM
Mon, Mar 30
44 °FPassing clouds.7 mph79%29.94 "Hg10 mi
10:54 PM48 °FMostly cloudy.5 mph74%29.98 "Hg10 mi
9:54 PM50 °FLight rain. Overcast.9 mph66%30.02 "Hg10 mi
8:54 PM51 °FMostly cloudy.8 mph52%29.98 "Hg10 mi
7:54 PM53 °FMore clouds than sun.8 mph48%29.97 "Hg10 mi
6:54 PM55 °FPartly sunny.12 mph42%29.99 "Hg10 mi
5:54 PM57 °FPartly sunny.18 mph36%30.00 "Hg10 mi
4:54 PM57 °FBroken clouds.20 mph32%29.99 "Hg10 mi
3:54 PM58 °FPartly sunny.23 mph31%30.00 "Hg10 mi
2:54 PM57 °FBroken clouds.22 mph32%30.01 "Hg10 mi
1:54 PM55 °FScattered clouds.14 mph35%30.03 "Hg10 mi
12:54 PM53 °FPassing clouds.18 mph38%30.04 "Hg10 mi
11:54 AM50 °FPassing clouds.17 mph50%30.06 "Hg10 mi
10:54 AM46 °FSunny.14 mph61%30.06 "Hg10 mi
9:54 AM43 °FSunny.12 mph71%30.05 "Hg10 mi
8:54 AM39 °FSunny.12 mph79%30.03 "Hg10 mi
7:54 AM34 °FPassing clouds.7 mph85%30.00 "Hg10 mi
Weather by CustomWeather, © 2015

See weather overviewHow to use our weather pages